Location: Trebic
(49.2170°N, 15.8830°E)
Time: 18:05:33
(UTC+02:00)

Transit 4A - Pass Details

Date: 29 August 2019
Orbit: 865 x 980 km, 66.8° (Epoch: 21 September)

Event Time Altitude Azimuth Distance (km) Brightness Sun altitude
Rises 19:12:30 0° 247° (WSW) 3,675 12.1 4.6°
Reaches altitude 10° 19:15:18 10° 255° (WSW) 2,730 11.8 4.1°
Maximum altitude 19:21:09 36° 321° (NW) 1,494 9.7 3.2°
Drops below altitude 10° 19:26:58 10° 28° (NNE) 2,707 10.2 2.2°
Sets 19:29:45 0° 37° (NE) 3,641 10.7 1.8°
